Weather History for Goodland, KS

Change the Weather History Date:

Friday, August 10, 2012

  Actual Average Record
Temperature  
Mean Temperature 72 °F 75 °F  
Max Temperature 88 °F 88 °F 105 °F (1964)
Min Temperature 56 °F 61 °F 48 °F (1960)
Degree Days  
Heating Degree Days 0 0  
Month to date heating degree days 0 0  
Since 1 June heating degree days 1 41  
Since 1 July heating degree days 0 4  
Cooling Degree Days 7 10  
Month to date cooling degree days 124 102  
Year to date cooling degree days 1064 656  
Since 1 June cooling degree days 976 615  
Growing Degree Days 24 (Base 50)    
Moisture  
Dew Point 48 °F    
Average Humidity 50    
Maximum Humidity 77    
Minimum Humidity 22    
Precipitation  
Precipitation 0.00 in 0.10 in 2.05 in (1977)
Month to date precipitation 0.62 1.04  
Year to date precipitation 7.88 14.24  
Snow  
Snow 0.00 in 0.00 in - ()
Month to date snowfall 0.0 0.0  
Since 1 June snowfall 0.0 0.0  
Since 1 July snowfall 0.0 0.0  
Snow Depth 0.00 in    
Sea Level Pressure  
Sea Level Pressure 30.04 in    
Wind  
Wind Speed 10 mph (SSE)    
Max Wind Speed 18 mph    
Max Gust Speed 30 mph    
Visibility 10 miles    
Events      
T = Trace of Precipitation, MM = Missing Value Source: NWS Daily Summary

Daily Weather History Graph

Daily Weather History Graph

Search for Another Location

Airport:

Trip Planner

Search our weather history database for the weather conditions in past years. The results will help you decide how hot, cold, wet, or windy it might be!

Date:

Astronomy

Aug. 10, 2012 Rise Set
Actual Time 5:55 AM MDT 7:48 PM MDT
Civil Twilight 5:26 AM MDT 8:17 PM MDT
Nautical Twilight 4:50 AM MDT 8:52 PM MDT
Astronomical Twilight 4:12 AM MDT 9:30 PM MDT
Moon No Moon Rise 2:29 PM MDT (8/10)
Length of Visible Light 14h 50m
Length of Day
13h 52m
Last Quarter, 41% of the Moon is Illuminated
Aug 10
Last Quarter
Aug 17
New
Aug 24
First Quarter
Aug 31
Full
Sep 8
Last Quarter

Hourly Weather History & Observations

Time (MDT) Temp. Dew Point Humidity Pressure Visibility Wind Dir Wind Speed Gust Speed Precip Events Conditions
12:53 AM 63.0 °F 50.0 °F 63% 30.08 in 10.0 mi SSE 5.8 mph - N/A   Clear
1:53 AM 59.0 °F 50.0 °F 72% 30.07 in 10.0 mi SSE 8.1 mph - N/A   Clear
2:53 AM 60.1 °F 48.9 °F 67% 30.07 in 10.0 mi South 8.1 mph - N/A   Clear
3:53 AM 57.0 °F 50.0 °F 77% 30.12 in 10.0 mi Calm Calm - N/A   Clear
4:53 AM 61.0 °F 50.0 °F 67% 30.08 in 10.0 mi South 10.4 mph - N/A   Partly Cloudy
5:53 AM 63.0 °F 50.0 °F 63% 30.09 in 10.0 mi SW 8.1 mph - N/A   Scattered Clouds
6:53 AM 62.1 °F 51.1 °F 67% 30.11 in 10.0 mi SW 6.9 mph - N/A   Clear
7:53 AM 64.0 °F 52.0 °F 65% 30.13 in 10.0 mi SW 6.9 mph - N/A   Clear
8:53 AM 69.1 °F 50.0 °F 51% 30.11 in 10.0 mi South 12.7 mph - N/A   Clear
9:53 AM 73.0 °F 48.0 °F 41% 30.10 in 10.0 mi South 15.0 mph - N/A   Clear
10:53 AM 77.0 °F 48.0 °F 36% 30.10 in 10.0 mi South 9.2 mph - N/A   Clear
11:53 AM 81.0 °F 48.0 °F 31% 30.09 in 10.0 mi South 12.7 mph - N/A   Clear
12:53 PM 82.9 °F 46.9 °F 28% 30.06 in 10.0 mi SE 8.1 mph 21.9 mph N/A   Clear
1:53 PM 84.9 °F 46.0 °F 26% 30.04 in 10.0 mi SSE 8.1 mph 19.6 mph N/A   Clear
2:53 PM 87.1 °F 45.0 °F 23% 30.01 in 10.0 mi SE 13.8 mph 19.6 mph N/A   Clear
3:53 PM 87.1 °F 45.0 °F 23% 30.00 in 10.0 mi SSE 12.7 mph - N/A   Clear
4:53 PM 87.1 °F 46.0 °F 24% 29.97 in 10.0 mi SSE 16.1 mph 29.9 mph N/A   Clear
5:53 PM 84.9 °F 46.0 °F 26% 29.95 in 10.0 mi SSE 15.0 mph - N/A   Clear
6:53 PM 82.0 °F 46.0 °F 28% 29.95 in 10.0 mi SE 10.4 mph 19.6 mph N/A   Clear
7:53 PM 75.0 °F 46.0 °F 36% 29.97 in 10.0 mi SE 8.1 mph - N/A   Clear
8:53 PM 69.1 °F 48.0 °F 47% 30.00 in 10.0 mi SE 5.8 mph - N/A   Clear
9:53 PM 69.1 °F 46.0 °F 44% 29.99 in 10.0 mi SE 9.2 mph - N/A   Clear
10:53 PM 64.9 °F 44.1 °F 47% 29.99 in 10.0 mi SSE 6.9 mph - N/A   Clear
11:53 PM 64.9 °F 45.0 °F 48% 29.98 in 10.0 mi SSE 10.4 mph - N/A   Clear